Location: Caltech
(34.1382°N, 118.1253°W)
Time: 05:03:53
(UTC-07:00)

ITAMSAT 1 - Visible Passes

Search period start: 28 May 2015 00:00
Search period end: 07 June 2015 00:00
Orbit: 784 x 797 km, 98.7° (Epoch: 27 May)

Date Brightness Start Highest point End Pass type
(mag) Time Alt. Az. Time Alt. Az. Time Alt. Az.
28 May 8.7 02:45:08 10° NNE 02:49:55 37° E 02:50:54 34° ESE visible
28 May 9.0 04:25:08 10° NNW 04:29:14 23° WNW 04:31:39 16° WSW visible
29 May 9.6 02:16:56 10° NE 02:20:26 19° E 02:21:20 18° ESE visible
29 May 8.2 03:55:13 10° N 04:00:10 43° WNW 04:02:05 31° WSW visible
30 May 7.6 03:25:46 10° NNE 03:31:02 85° W 03:32:31 48° SSW visible
31 May 8.3 02:56:43 10° NNE 03:01:45 48° E 03:02:57 41° SE visible
31 May 9.3 04:37:24 10° NNW 04:40:55 18° WNW 04:43:42 12° WSW visible
01 Jun 9.3 02:28:11 10° NE 02:32:21 24° E 02:33:23 23° ESE visible
01 Jun 8.5 04:07:12 10° N 04:11:54 33° WNW 04:14:08 23° WSW visible
02 Jun 10.1 02:01:00 10° ENE 02:02:45 12° E 02:03:49 12° ESE visible
02 Jun 7.7 03:37:36 10° N 03:42:48 66° WNW 03:44:34 40° SW visible
03 Jun 7.9 03:08:23 10° NNE 03:13:35 64° E 03:14:59 46° SSE visible
03 Jun 9.6 04:49:54 10° NW 04:52:37 14° WNW 04:55:01 10° W visible
04 Jun 8.9 02:39:37 10° NE 02:44:14 32° E 02:45:25 29° ESE visible
04 Jun 8.9 04:19:17 10° NNW 04:23:37 26° WNW 04:26:09 18° WSW visible
05 Jun 9.8 02:11:39 10° NE 02:14:42 16° E 02:15:50 15° ESE visible
05 Jun 8.0 03:49:29 10° N 03:54:33 50° WNW 03:56:35 32° SW visible
06 Jun 7.6 03:20:07 10° NNE 03:25:22 84° E 03:27:00 46° S visible
06 Jun 9.8 05:03:16 10° NW 05:04:16 10° WNW 05:04:54 10° WNW visible
